Weather History for Camarillo, CA

Change the Weather History Date:

Wednesday, December 10, 2014

  Actual Average Record
Temperature  
Mean Temperature 58 °F 54 °F  
Max Temperature 69 °F 66 °F 85 °F (1958)
Min Temperature 47 °F 42 °F 31 °F (1972)
Degree Days  
Heating Degree Days 7 11  
Month to date heating degree days 26 107  
Since 1 July heating degree days 113 439  
Cooling Degree Days 0 0  
Month to date cooling degree days 0 0  
Year to date cooling degree days 1009 330  
Growing Degree Days 8 (Base 50)    
Moisture  
Dew Point 50 °F    
Average Humidity 73    
Maximum Humidity 93    
Minimum Humidity 52    
Precipitation  
Precipitation 0.00 in 0.04 in 2.60 in (1996)
Month to date precipitation 1.27 0.39  
Year to date precipitation 6.32 13.55  
Since 1 July precipitation 2.13 2.57  
Sea Level Pressure  
Sea Level Pressure 30.00 in    
Wind  
Wind Speed 4 mph (SSE)    
Max Wind Speed 10 mph    
Max Gust Speed 13 mph    
Visibility 9 miles    
Events      
T = Trace of Precipitation, MM = Missing Value Source: NWS Daily Summary

Daily Weather History Graph

Daily Weather History Graph

Search for Another Location

Airport:

Trip Planner

Search our weather history database for the weather conditions in past years. The results will help you decide how hot, cold, wet, or windy it might be!

Date:

Astronomy

Dec. 10, 2014 Rise Set
Actual Time 6:51 AM PST 4:46 PM PST
Civil Twilight 6:23 AM PST 5:14 PM PST
Nautical Twilight 5:52 AM PST 5:45 PM PST
Astronomical Twilight 5:22 AM PST 6:16 PM PST
Moon 8:59 PM PST (12/10) 9:51 AM PST (12/10)
Length of Visible Light 10h 50m
Length of Day
9h 55m
Waning Gibbous, 82% of the Moon is Illuminated
Dec 10
Waning Gibbous
Dec 14
Last Quarter
Dec 21
New
Dec 28
First Quarter
Jan 4
Full

Hourly Weather History & Observations

Time (PST) Temp. Dew Point Humidity Pressure Visibility Wind Dir Wind Speed Gust Speed Precip Events Conditions
12:55 AM 59.0 °F 43.0 °F 55% 30.00 in 10.0 mi ENE 8.1 mph - N/A   Clear
1:55 AM 53.1 °F 44.1 °F 71% 30.00 in 10.0 mi WNW 9.2 mph - N/A   Clear
2:55 AM 55.0 °F 43.0 °F 64% 30.02 in 10.0 mi SE 5.8 mph - N/A   Clear
3:55 AM 52.0 °F 44.1 °F 74% 30.02 in 10.0 mi ENE 4.6 mph - N/A   Clear
4:55 AM 52.0 °F 43.0 °F 71% 30.01 in 10.0 mi East 6.9 mph - N/A   Clear
5:55 AM 48.0 °F 42.1 °F 80% 30.01 in 10.0 mi WNW 3.5 mph - N/A   Clear
6:55 AM 48.9 °F 43.0 °F 80% 30.03 in 10.0 mi Calm Calm - N/A   Clear
7:55 AM 53.1 °F 46.0 °F 77% 30.05 in 10.0 mi Calm Calm - N/A   Clear
8:55 AM 59.0 °F 44.1 °F 58% 30.06 in 10.0 mi Calm Calm - N/A   Clear
9:55 AM 64.0 °F 46.0 °F 52% 30.04 in 10.0 mi East 3.5 mph - N/A   Clear
10:55 AM 66.0 °F 52.0 °F 60% 30.05 in 10.0 mi WSW 4.6 mph - N/A   Clear
11:55 AM 66.9 °F 53.1 °F 61% 30.01 in 10.0 mi Calm Calm - N/A   Clear
12:55 PM 68.0 °F 55.0 °F 63% 29.98 in 10.0 mi SSW 3.5 mph - N/A   Clear
1:55 PM 68.0 °F 57.9 °F 70% 29.99 in 8.0 mi SW 10.4 mph - N/A   Clear
2:55 PM 68.0 °F 53.1 °F 59% 29.98 in 10.0 mi SW 6.9 mph - N/A   Clear
3:55 PM 66.0 °F 57.9 °F 75% 29.97 in 10.0 mi SSW 4.6 mph - N/A   Clear
4:55 PM 63.0 °F 55.9 °F 78% 29.97 in 10.0 mi West 5.8 mph - N/A   Clear
5:55 PM 61.0 °F 55.9 °F 83% 29.97 in 10.0 mi Calm Calm - N/A   Clear
6:55 PM 57.9 °F 55.0 °F 90% 29.98 in 8.0 mi ESE 3.5 mph - N/A   Clear
7:55 PM 59.0 °F 55.0 °F 87% 29.98 in 8.0 mi NE 3.5 mph - N/A   Partly Cloudy
8:55 PM 57.0 °F 54.0 °F 89% 29.97 in 8.0 mi ENE 5.8 mph - N/A   Clear
9:55 PM 54.0 °F 51.1 °F 90% 29.99 in 7.0 mi West 5.8 mph - N/A   Clear
10:55 PM 55.0 °F 53.1 °F 93% 29.98 in 6.0 mi NE 4.6 mph - N/A   Clear
11:55 PM 54.0 °F 52.0 °F 93% 29.99 in 6.0 mi Calm Calm - N/A   Clear